Time,TemperatureF,DewpointF,PressureIn,WindDirection,WindDirectionDegrees,WindSpeedMPH,WindSpeedGustMPH,Humidity,HourlyPrecipIn,Conditions,Clouds,dailyrainin,SoftwareType,DateUTC
2013-03-20 00:01:00,9.9,0.1,30.38,NNE,20,9.0,15.0,64,0.00,,,0.00,meteohub,2013-03-20 05:01:00,
2013-03-20 00:06:00,9.9,0.1,30.38,NNE,30,6.0,14.0,64,0.00,,,0.00,meteohub,2013-03-20 05:06:00,
2013-03-20 00:11:00,9.9,0.1,30.38,NE,49,4.0,14.0,64,0.00,,,0.00,meteohub,2013-03-20 05:11:00,
2013-03-20 00:16:00,9.9,0.1,30.38,NE,37,4.0,14.0,64,0.00,,,0.00,meteohub,2013-03-20 05:16:00,
2013-03-20 00:21:00,9.9,0.1,30.38,North,9,12.0,15.0,64,0.00,,,0.00,meteohub,2013-03-20 05:21:00,
2013-03-20 00:27:00,9.9,-0.2,30.38,North,0,12.0,16.0,63,0.00,,,0.00,meteohub,2013-03-20 05:27:00,
2013-03-20 00:32:00,9.9,-0.2,30.38,NE,36,13.0,17.0,63,0.00,,,0.00,meteohub,2013-03-20 05:32:00,
2013-03-20 00:37:00,9.9,-0.2,30.38,NE,34,10.0,19.0,63,0.00,,,0.00,meteohub,2013-03-20 05:37:00,
2013-03-20 00:42:00,9.7,-0.4,30.38,NE,34,9.0,19.0,63,0.00,,,0.00,meteohub,2013-03-20 05:42:00,
2013-03-20 00:47:00,9.7,-0.4,30.38,NE,47,9.0,18.0,63,0.00,,,0.00,meteohub,2013-03-20 05:47:00,
2013-03-20 00:52:00,9.7,-0.4,30.38,NNE,30,4.0,16.0,63,0.00,,,0.00,meteohub,2013-03-20 05:52:00,
2013-03-20 00:57:00,9.5,-0.6,30.38,NE,38,4.0,16.0,63,0.00,,,0.00,meteohub,2013-03-20 05:57:00,
2013-03-20 01:02:00,9.3,-0.8,30.38,North,11,5.0,16.0,63,0.00,,,0.00,meteohub,2013-03-20 06:02:00,
2013-03-20 01:07:00,9.1,-0.9,30.38,NNE,30,5.0,13.0,63,0.00,,,0.00,meteohub,2013-03-20 06:07:00,
2013-03-20 01:12:00,9.1,-0.9,30.38,NNE,24,5.0,13.0,63,0.00,,,0.00,meteohub,2013-03-20 06:12:00,
2013-03-20 01:17:00,9.0,-1.1,30.38,NNE,20,6.0,12.0,63,0.00,,,0.00,meteohub,2013-03-20 06:17:00,
2013-03-20 01:22:00,9.0,-1.1,30.38,North,0,10.0,12.0,63,0.00,,,0.00,meteohub,2013-03-20 06:22:00,
2013-03-20 01:27:00,9.0,-1.1,30.38,NNE,15,4.0,14.0,63,0.00,,,0.00,meteohub,2013-03-20 06:27:00,
2013-03-20 01:32:00,9.0,-1.1,30.38,NNE,15,8.0,14.0,63,0.00,,,0.00,meteohub,2013-03-20 06:32:00,
2013-03-20 01:37:00,8.8,-1.3,30.38,NE,46,6.0,14.0,63,0.00,,,0.00,meteohub,2013-03-20 06:37:00,
2013-03-20 01:42:00,8.8,-1.3,30.38,NE,37,7.0,14.0,63,0.00,,,0.00,meteohub,2013-03-20 06:42:00,
2013-03-20 01:47:00,8.6,-1.1,30.38,ENE,59,5.0,14.0,64,0.00,,,0.00,meteohub,2013-03-20 06:47:00,
2013-03-20 01:52:00,8.4,-1.3,30.38,NE,40,2.0,14.0,64,0.00,,,0.00,meteohub,2013-03-20 06:52:00,
2013-03-20 01:57:00,8.4,-1.3,30.38,NNE,16,4.0,14.0,64,0.00,,,0.00,meteohub,2013-03-20 06:57:00,
2013-03-20 02:02:00,8.2,-1.1,30.38,NNE,17,5.0,14.0,65,0.00,,,0.00,meteohub,2013-03-20 07:02:00,
2013-03-20 02:07:00,8.2,-1.1,30.38,NNE,24,3.0,13.0,65,0.00,,,0.00,meteohub,2013-03-20 07:07:00,
2013-03-20 02:12:00,8.2,-1.1,30.38,NNE,19,2.0,13.0,65,0.00,,,0.00,meteohub,2013-03-20 07:12:00,
2013-03-20 02:17:00,8.2,-0.8,30.38,NNE,15,7.0,13.0,66,0.00,,,0.00,meteohub,2013-03-20 07:17:00,
2013-03-20 02:22:00,8.2,-0.8,30.38,NE,37,8.0,14.0,66,0.00,,,0.00,meteohub,2013-03-20 07:22:00,
2013-03-20 02:27:00,8.1,-0.9,30.38,NE,48,10.0,14.0,66,0.00,,,0.00,meteohub,2013-03-20 07:27:00,
2013-03-20 02:32:00,8.1,-0.9,30.38,NNE,18,3.0,14.0,66,0.00,,,0.00,meteohub,2013-03-20 07:32:00,
2013-03-20 02:37:00,8.1,-0.6,30.38,NE,34,8.0,13.0,67,0.00,,,0.00,meteohub,2013-03-20 07:37:00,
2013-03-20 02:42:00,8.1,-0.6,30.38,NE,38,10.0,13.0,67,0.00,,,0.00,meteohub,2013-03-20 07:42:00,
2013-03-20 02:47:00,8.1,-0.6,30.38,NNE,17,5.0,14.0,67,0.00,,,0.00,meteohub,2013-03-20 07:47:00,
2013-03-20 02:52:00,8.1,-0.6,30.38,North,5,10.0,16.0,67,0.00,,,0.00,meteohub,2013-03-20 07:52:00,
2013-03-20 02:57:00,8.1,-0.6,30.38,NE,34,6.0,16.0,67,0.00,,,0.00,meteohub,2013-03-20 07:57:00,
2013-03-20 03:02:00,8.1,-0.6,30.38,NE,36,4.0,16.0,67,0.00,,,0.00,meteohub,2013-03-20 08:02:00,
2013-03-20 03:07:00,8.1,-0.6,30.38,NNE,28,4.0,16.0,67,0.00,,,0.00,meteohub,2013-03-20 08:07:00,
2013-03-20 03:12:00,8.1,-0.6,30.38,NE,37,10.0,16.0,67,0.00,,,0.00,meteohub,2013-03-20 08:12:00,
2013-03-20 03:17:00,8.1,-0.6,30.38,NNE,22,7.0,15.0,67,0.00,,,0.00,meteohub,2013-03-20 08:17:00,
2013-03-20 03:22:00,8.1,-0.6,30.38,NNE,24,6.0,15.0,67,0.00,,,0.00,meteohub,2013-03-20 08:22:00,
2013-03-20 03:27:00,7.9,-0.8,30.38,NE,45,11.0,14.0,67,0.00,,,0.00,meteohub,2013-03-20 08:27:00,
2013-03-20 03:32:00,7.9,-0.8,30.38,NE,35,6.0,18.0,67,0.00,,,0.00,meteohub,2013-03-20 08:32:00,
2013-03-20 03:37:00,7.9,-0.8,30.38,NNE,26,7.0,18.0,67,0.00,,,0.00,meteohub,2013-03-20 08:37:00,
2013-03-20 03:42:00,7.9,-0.8,30.38,NNE,30,9.0,18.0,67,0.00,,,0.00,meteohub,2013-03-20 08:42:00,
2013-03-20 03:47:00,7.9,-1.1,30.38,NNE,21,6.0,16.0,66,0.00,,,0.00,meteohub,2013-03-20 08:47:00,
2013-03-20 03:52:00,7.9,-1.1,30.38,NE,34,6.0,16.0,66,0.00,,,0.00,meteohub,2013-03-20 08:52:00,
2013-03-20 03:57:00,7.7,-1.3,30.38,NE,49,7.0,16.0,66,0.00,,,0.00,meteohub,2013-03-20 08:57:00,
2013-03-20 04:03:00,7.7,-1.3,30.38,NNE,33,10.0,15.0,66,0.00,,,0.00,meteohub,2013-03-20 09:03:00,
2013-03-20 04:08:00,7.5,-1.5,30.38,NNE,28,5.0,15.0,66,0.00,,,0.00,meteohub,2013-03-20 09:08:00,
2013-03-20 04:13:00,7.5,-1.5,30.37,NNE,15,2.0,15.0,66,0.00,,,0.00,meteohub,2013-03-20 09:13:00,
2013-03-20 04:18:00,7.3,-1.7,30.37,NNE,24,5.0,13.0,66,0.00,,,0.00,meteohub,2013-03-20 09:18:00,
2013-03-20 04:23:00,7.3,-1.3,30.37,NNE,21,11.0,14.0,67,0.00,,,0.00,meteohub,2013-03-20 09:23:00,
2013-03-20 04:28:00,7.2,-1.5,30.37,NNE,23,7.0,14.0,67,0.00,,,0.00,meteohub,2013-03-20 09:28:00,
2013-03-20 04:33:00,7.2,-1.5,30.37,NNE,16,6.0,14.0,67,0.00,,,0.00,meteohub,2013-03-20 09:33:00,
2013-03-20 04:38:00,7.0,-1.7,30.37,NNE,26,5.0,13.0,67,0.00,,,0.00,meteohub,2013-03-20 09:38:00,
2013-03-20 04:43:00,7.0,-1.7,30.37,North,5,7.0,13.0,67,0.00,,,0.00,meteohub,2013-03-20 09:43:00,
2013-03-20 04:48:00,7.0,-1.7,30.37,NNE,19,6.0,13.0,67,0.00,,,0.00,meteohub,2013-03-20 09:48:00,
2013-03-20 04:53:00,7.2,-1.5,30.37,NNE,24,7.0,15.0,67,0.00,,,0.00,meteohub,2013-03-20 09:53:00,
2013-03-20 04:58:00,7.2,-1.5,30.38,NNE,15,10.0,15.0,67,0.00,,,0.00,meteohub,2013-03-20 09:58:00,
2013-03-20 05:03:00,7.2,-1.5,30.38,NNE,16,4.0,15.0,67,0.00,,,0.00,meteohub,2013-03-20 10:03:00,
2013-03-20 05:08:00,7.2,-1.5,30.38,North,355,14.0,14.0,67,0.00,,,0.00,meteohub,2013-03-20 10:08:00,
2013-03-20 05:13:00,7.2,-1.5,30.38,NE,34,5.0,18.0,67,0.00,,,0.00,meteohub,2013-03-20 10:13:00,
2013-03-20 05:18:00,7.0,-1.7,30.38,NNE,23,5.0,18.0,67,0.00,,,0.00,meteohub,2013-03-20 10:18:00,
2013-03-20 05:23:00,7.0,-1.7,30.38,NNE,24,2.0,18.0,67,0.00,,,0.00,meteohub,2013-03-20 10:23:00,
2013-03-20 05:28:00,7.0,-1.7,30.38,NE,41,9.0,15.0,67,0.00,,,0.00,meteohub,2013-03-20 10:28:00,
2013-03-20 05:33:00,7.2,-1.8,30.38,NE,53,11.0,16.0,66,0.00,,,0.00,meteohub,2013-03-20 10:33:00,
2013-03-20 05:38:00,7.2,-1.8,30.38,NNE,22,4.0,16.0,66,0.00,,,0.00,meteohub,2013-03-20 10:38:00,
2013-03-20 05:43:00,7.2,-1.8,30.38,NNE,28,5.0,16.0,66,0.00,,,0.00,meteohub,2013-03-20 10:43:00,
2013-03-20 05:48:00,7.2,-1.8,30.39,NNE,17,10.0,15.0,66,0.00,,,0.00,meteohub,2013-03-20 10:48:00,
2013-03-20 05:53:00,7.0,-2.0,30.39,NNE,19,4.0,15.0,66,0.00,,,0.00,meteohub,2013-03-20 10:53:00,
2013-03-20 05:58:00,6.6,-2.4,30.39,North,11,10.0,15.0,66,0.00,,,0.00,meteohub,2013-03-20 10:58:00,
2013-03-20 06:03:00,6.6,-2.4,30.39,NNE,25,5.0,14.0,66,0.00,,,0.00,meteohub,2013-03-20 11:03:00,
2013-03-20 06:08:00,6.6,-2.4,30.39,NNE,24,4.0,13.0,66,0.00,,,0.00,meteohub,2013-03-20 11:08:00,
2013-03-20 06:13:00,6.8,-2.2,30.39,NNE,24,7.0,13.0,66,0.00,,,0.00,meteohub,2013-03-20 11:13:00,
2013-03-20 06:18:00,6.8,-2.2,30.40,NNE,15,15.0,16.0,66,0.00,,,0.00,meteohub,2013-03-20 11:18:00,
2013-03-20 06:23:00,6.8,-2.2,30.39,NE,34,6.0,16.0,66,0.00,,,0.00,meteohub,2013-03-20 11:23:00,
2013-03-20 06:28:00,7.0,-2.0,30.39,NE,45,5.0,17.0,66,0.00,,,0.00,meteohub,2013-03-20 11:28:00,
2013-03-20 06:33:00,7.0,-2.4,30.40,NNE,21,2.0,17.0,65,0.00,,,0.00,meteohub,2013-03-20 11:33:00,
2013-03-20 06:38:00,7.0,-2.4,30.40,NE,35,4.0,17.0,65,0.00,,,0.00,meteohub,2013-03-20 11:38:00,
2013-03-20 06:43:00,7.2,-2.2,30.40,North,0,11.0,18.0,65,0.00,,,0.00,meteohub,2013-03-20 11:43:00,
2013-03-20 06:48:00,7.2,-2.2,30.40,NNE,33,9.0,18.0,65,0.00,,,0.00,meteohub,2013-03-20 11:48:00,
2013-03-20 06:53:00,7.2,-2.2,30.40,North,0,9.0,18.0,65,0.00,,,0.00,meteohub,2013-03-20 11:53:00,
2013-03-20 06:58:00,6.8,-2.4,30.40,NNE,24,3.0,14.0,65,0.00,,,0.00,meteohub,2013-03-20 11:58:00,
2013-03-20 07:03:00,6.6,-2.6,30.40,NNE,15,7.0,14.0,65,0.00,,,0.00,meteohub,2013-03-20 12:03:00,
2013-03-20 07:08:00,6.6,-2.6,30.40,NNE,29,3.0,14.0,65,0.00,,,0.00,meteohub,2013-03-20 12:08:00,
2013-03-20 07:13:00,6.6,-2.6,30.40,NNE,14,2.0,14.0,65,0.00,,,0.00,meteohub,2013-03-20 12:13:00,
2013-03-20 07:18:00,6.4,-2.7,30.40,NNE,22,4.0,14.0,65,0.00,,,0.00,meteohub,2013-03-20 12:18:00,
2013-03-20 07:23:00,6.4,-2.7,30.40,North,0,5.0,14.0,65,0.00,,,0.00,meteohub,2013-03-20 12:23:00,
2013-03-20 07:28:00,6.4,-2.7,30.40,NNE,29,4.0,14.0,65,0.00,,,0.00,meteohub,2013-03-20 12:28:00,
2013-03-20 07:33:00,6.3,-2.7,30.40,NNE,24,4.0,14.0,66,0.00,,,0.00,meteohub,2013-03-20 12:33:00,
2013-03-20 07:39:00,6.4,-2.6,30.40,NNE,21,2.0,14.0,66,0.00,,,0.00,meteohub,2013-03-20 12:39:00,
2013-03-20 07:44:00,6.4,-2.7,30.40,NNE,17,6.0,13.0,65,0.00,,,0.00,meteohub,2013-03-20 12:44:00,
2013-03-20 07:49:00,6.4,-2.7,30.40,NE,37,10.0,13.0,65,0.00,,,0.00,meteohub,2013-03-20 12:49:00,
2013-03-20 07:54:00,6.4,-2.7,30.40,NNE,15,6.0,13.0,65,0.00,,,0.00,meteohub,2013-03-20 12:54:00,
2013-03-20 07:59:00,6.4,-2.7,30.40,North,5,10.0,13.0,65,0.00,,,0.00,meteohub,2013-03-20 12:59:00,
2013-03-20 08:04:00,6.6,-2.6,30.40,NNE,12,5.0,12.0,65,0.00,,,0.00,meteohub,2013-03-20 13:04:00,
2013-03-20 08:09:00,7.0,-2.6,30.40,NE,42,6.0,12.0,64,0.00,,,0.00,meteohub,2013-03-20 13:09:00,
2013-03-20 08:14:00,7.0,-2.6,30.40,NNE,24,2.0,13.0,64,0.00,,,0.00,meteohub,2013-03-20 13:14:00,
2013-03-20 08:19:00,7.2,-2.4,30.40,NE,35,4.0,13.0,64,0.00,,,0.00,meteohub,2013-03-20 13:19:00,
2013-03-20 08:24:00,7.2,-2.4,30.40,NNE,21,12.0,14.0,64,0.00,,,0.00,meteohub,2013-03-20 13:24:00,
2013-03-20 08:29:00,7.3,-2.2,30.40,NE,49,10.0,14.0,64,0.00,,,0.00,meteohub,2013-03-20 13:29:00,
2013-03-20 08:34:00,7.5,-2.0,30.40,NE,39,5.0,15.0,64,0.00,,,0.00,meteohub,2013-03-20 13:34:00,
2013-03-20 08:39:00,7.7,-2.2,30.40,NNE,15,8.0,15.0,63,0.00,,,0.00,meteohub,2013-03-20 13:39:00,
2013-03-20 08:44:00,7.9,-2.0,30.40,NNW,339,12.0,15.0,63,0.00,,,0.00,meteohub,2013-03-20 13:44:00,
2013-03-20 08:49:00,8.1,-1.8,30.40,NNE,19,4.0,18.0,63,0.00,,,0.00,meteohub,2013-03-20 13:49:00,
2013-03-20 08:54:00,8.2,-2.0,30.40,North,5,9.0,18.0,62,0.00,,,0.00,meteohub,2013-03-20 13:54:00,
2013-03-20 08:59:00,8.4,-1.8,30.40,NNE,22,8.0,16.0,62,0.00,,,0.00,meteohub,2013-03-20 13:59:00,
2013-03-20 09:04:00,8.8,-1.7,30.40,NE,35,10.0,18.0,62,0.00,,,0.00,meteohub,2013-03-20 14:04:00,
2013-03-20 09:09:00,9.0,-1.7,30.40,NE,45,14.0,18.0,61,0.00,,,0.00,meteohub,2013-03-20 14:09:00,
2013-03-20 09:14:00,9.1,-1.7,30.40,North,11,2.0,18.0,61,0.00,,,0.00,meteohub,2013-03-20 14:14:00,
2013-03-20 09:19:00,9.1,-1.8,30.39,NNE,24,6.0,18.0,60,0.00,,,0.00,meteohub,2013-03-20 14:19:00,
2013-03-20 09:24:00,9.3,-1.8,30.39,North,0,6.0,18.0,60,0.00,,,0.00,meteohub,2013-03-20 14:24:00,
2013-03-20 09:29:00,9.7,-1.5,30.39,NNE,32,11.0,18.0,60,0.00,,,0.00,meteohub,2013-03-20 14:29:00,
2013-03-20 09:34:00,9.9,-1.7,30.39,NNE,25,6.0,18.0,59,0.00,,,0.00,meteohub,2013-03-20 14:34:00,
2013-03-20 09:39:00,10.0,-1.5,30.39,NE,56,11.0,18.0,59,0.00,,,0.00,meteohub,2013-03-20 14:39:00,
2013-03-20 09:44:00,10.2,-1.3,30.38,NE,38,14.0,18.0,59,0.00,,,0.00,meteohub,2013-03-20 14:44:00,
2013-03-20 09:49:00,10.6,-0.9,30.38,NNE,19,7.0,19.0,59,0.00,,,0.00,meteohub,2013-03-20 14:49:00,
2013-03-20 09:54:00,10.8,-1.1,30.38,NNE,17,9.0,19.0,58,0.00,,,0.00,meteohub,2013-03-20 14:54:00,
2013-03-20 09:59:00,10.8,-1.1,30.38,NE,49,11.0,23.0,58,0.00,,,0.00,meteohub,2013-03-20 14:59:00,
2013-03-20 10:04:00,10.9,-0.9,30.38,NE,56,9.0,25.0,58,0.00,,,0.00,meteohub,2013-03-20 15:04:00,
2013-03-20 10:09:00,11.1,-0.8,30.38,NE,52,13.0,25.0,58,0.00,,,0.00,meteohub,2013-03-20 15:09:00,
2013-03-20 10:14:00,11.7,-0.6,30.38,NNE,22,13.0,25.0,57,0.00,,,0.00,meteohub,2013-03-20 15:14:00,
2013-03-20 10:19:00,11.7,-1.3,30.38,NE,46,18.0,20.0,55,0.00,,,0.00,meteohub,2013-03-20 15:19:00,
2013-03-20 10:24:00,11.8,-0.8,30.37,ENE,57,6.0,24.0,56,0.00,,,0.00,meteohub,2013-03-20 15:24:00,
2013-03-20 10:29:00,12.0,-0.6,30.38,NNE,32,10.0,25.0,56,0.00,,,0.00,meteohub,2013-03-20 15:29:00,
2013-03-20 10:34:00,12.0,-1.1,30.38,NNE,26,12.0,25.0,55,0.00,,,0.00,meteohub,2013-03-20 15:34:00,
2013-03-20 10:39:00,12.0,-0.6,30.38,NE,45,11.0,24.0,56,0.00,,,0.00,meteohub,2013-03-20 15:39:00,
2013-03-20 10:44:00,12.0,-1.1,30.37,NNE,15,11.0,24.0,55,0.00,,,0.00,meteohub,2013-03-20 15:44:00,
2013-03-20 10:49:00,12.2,-0.9,30.38,NE,36,11.0,28.0,55,0.00,,,0.00,meteohub,2013-03-20 15:49:00,
2013-03-20 10:54:00,12.6,-0.6,30.38,NE,38,12.0,28.0,55,0.00,,,0.00,meteohub,2013-03-20 15:54:00,
2013-03-20 10:59:00,12.7,-0.4,30.38,NNE,32,10.0,26.0,55,0.00,,,0.00,meteohub,2013-03-20 15:59:00,
2013-03-20 11:05:00,12.7,-0.8,30.38,NE,42,15.0,26.0,54,0.00,,,0.00,meteohub,2013-03-20 16:05:00,
2013-03-20 11:10:00,12.9,-0.6,30.38,North,11,6.0,26.0,54,0.00,,,0.00,meteohub,2013-03-20 16:10:00,
2013-03-20 11:15:00,13.5,0.7,30.38,North,5,10.0,24.0,56,0.00,,,0.00,meteohub,2013-03-20 16:15:00,
2013-03-20 11:20:00,13.5,0.0,30.37,NNE,29,12.0,21.0,54,0.00,,,0.00,meteohub,2013-03-20 16:20:00,
2013-03-20 11:25:00,13.3,0.1,30.37,NE,53,10.0,19.0,55,0.00,,,0.00,meteohub,2013-03-20 16:25:00,
2013-03-20 11:30:00,13.5,0.0,30.37,NE,34,16.0,19.0,54,0.00,,,0.00,meteohub,2013-03-20 16:30:00,
2013-03-20 11:35:00,13.3,0.1,30.37,NNE,27,14.0,19.0,55,0.00,,,0.00,meteohub,2013-03-20 16:35:00,
2013-03-20 11:40:00,13.1,0.0,30.37,ENE,61,18.0,23.0,55,0.00,,,0.00,meteohub,2013-03-20 16:40:00,
2013-03-20 11:45:00,13.3,-0.2,30.37,NE,37,6.0,23.0,54,0.00,,,0.00,meteohub,2013-03-20 16:45:00,
2013-03-20 11:50:00,13.5,0.0,30.37,ENE,63,17.0,23.0,54,0.00,,,0.00,meteohub,2013-03-20 16:50:00,
2013-03-20 11:55:00,13.6,0.5,30.37,North,10,8.0,23.0,55,0.00,,,0.00,meteohub,2013-03-20 16:55:00,
2013-03-20 12:00:00,14.2,1.0,30.37,NE,56,22.0,22.0,55,0.00,,,0.00,meteohub,2013-03-20 17:00:00,
2013-03-20 12:05:00,13.6,-0.4,30.36,NE,49,12.0,22.0,53,0.00,,,0.00,meteohub,2013-03-20 17:05:00,
2013-03-20 12:10:00,14.2,1.0,30.36,NNE,30,11.0,24.0,55,0.00,,,0.00,meteohub,2013-03-20 17:10:00,
2013-03-20 12:15:00,14.4,0.7,30.36,North,350,10.0,24.0,54,0.00,,,0.00,meteohub,2013-03-20 17:15:00,
2013-03-20 12:20:00,14.4,0.3,30.36,NE,35,11.0,22.0,53,0.00,,,0.00,meteohub,2013-03-20 17:20:00,
2013-03-20 12:25:00,14.5,0.9,30.36,NNE,19,6.0,21.0,54,0.00,,,0.00,meteohub,2013-03-20 17:25:00,
2013-03-20 12:30:00,14.7,1.0,30.36,NE,34,13.0,21.0,54,0.00,,,0.00,meteohub,2013-03-20 17:30:00,
2013-03-20 12:35:00,14.9,0.9,30.36,NE,50,15.0,21.0,53,0.00,,,0.00,meteohub,2013-03-20 17:35:00,
2013-03-20 12:40:00,14.7,1.4,30.35,NNE,13,16.0,21.0,55,0.00,,,0.00,meteohub,2013-03-20 17:40:00,
2013-03-20 12:45:00,14.7,1.4,30.35,North,0,14.0,21.0,55,0.00,,,0.00,meteohub,2013-03-20 17:45:00,
2013-03-20 12:50:00,15.1,1.8,30.35,NNE,24,13.0,20.0,55,0.00,,,0.00,meteohub,2013-03-20 17:50:00,
2013-03-20 12:55:00,14.7,1.0,30.35,NE,49,12.0,22.0,54,0.00,,,0.00,meteohub,2013-03-20 17:55:00,
2013-03-20 13:00:00,14.9,0.9,30.35,NNW,344,11.0,22.0,53,0.00,,,0.00,meteohub,2013-03-20 18:00:00,
2013-03-20 13:05:00,15.3,1.6,30.35,NE,34,11.0,22.0,54,0.00,,,0.00,meteohub,2013-03-20 18:05:00,
2013-03-20 13:10:00,15.4,1.4,30.34,NNE,32,14.0,22.0,53,0.00,,,0.00,meteohub,2013-03-20 18:10:00,
2013-03-20 13:15:00,16.0,1.9,30.34,NE,36,18.0,23.0,53,0.00,,,0.00,meteohub,2013-03-20 18:15:00,
2013-03-20 13:20:00,16.0,2.3,30.34,NNE,19,12.0,23.0,54,0.00,,,0.00,meteohub,2013-03-20 18:20:00,
2013-03-20 13:25:00,16.2,2.1,30.34,NE,55,12.0,20.0,53,0.00,,,0.00,meteohub,2013-03-20 18:25:00,
2013-03-20 13:30:00,16.2,2.1,30.33,North,0,4.0,20.0,53,0.00,,,0.00,meteohub,2013-03-20 18:30:00,
2013-03-20 13:35:00,16.3,2.1,30.33,NNE,30,18.0,20.0,53,0.00,,,0.00,meteohub,2013-03-20 18:35:00,
2013-03-20 13:40:00,16.3,2.7,30.33,North,0,4.0,22.0,54,0.00,,,0.00,meteohub,2013-03-20 18:40:00,
2013-03-20 13:45:00,16.5,1.9,30.33,NNE,19,18.0,22.0,52,0.00,,,0.00,meteohub,2013-03-20 18:45:00,
2013-03-20 13:50:00,16.5,2.8,30.33,North,0,10.0,22.0,54,0.00,,,0.00,meteohub,2013-03-20 18:50:00,
2013-03-20 13:55:00,16.9,2.7,30.33,North,5,6.0,22.0,53,0.00,,,0.00,meteohub,2013-03-20 18:55:00,
2013-03-20 14:00:00,17.1,3.2,30.33,North,355,11.0,21.0,54,0.00,,,0.00,meteohub,2013-03-20 19:00:00,
2013-03-20 14:05:00,17.1,2.8,30.33,North,355,16.0,21.0,53,0.00,,,0.00,meteohub,2013-03-20 19:05:00,
2013-03-20 14:10:00,17.1,2.8,30.33,NE,51,17.0,24.0,53,0.00,,,0.00,meteohub,2013-03-20 19:10:00,
2013-03-20 14:15:00,16.7,2.5,30.32,North,355,10.0,27.0,53,0.00,,,0.00,meteohub,2013-03-20 19:15:00,
2013-03-20 14:21:00,17.1,2.8,30.32,NE,55,9.0,27.0,53,0.00,,,0.00,meteohub,2013-03-20 19:21:00,
2013-03-20 14:26:00,17.2,3.0,30.32,North,350,13.0,23.0,53,0.00,,,0.00,meteohub,2013-03-20 19:26:00,
2013-03-20 14:31:00,17.4,3.2,30.32,NNE,22,16.0,23.0,53,0.00,,,0.00,meteohub,2013-03-20 19:31:00,
2013-03-20 14:36:00,17.2,3.0,30.32,North,5,16.0,24.0,53,0.00,,,0.00,meteohub,2013-03-20 19:36:00,
2013-03-20 14:41:00,17.6,3.7,30.32,NE,48,12.0,24.0,54,0.00,,,0.00,meteohub,2013-03-20 19:41:00,
2013-03-20 14:46:00,17.4,3.2,30.32,NNE,24,17.0,24.0,53,0.00,,,0.00,meteohub,2013-03-20 19:46:00,
2013-03-20 14:51:00,17.8,3.6,30.32,NE,46,15.0,21.0,53,0.00,,,0.00,meteohub,2013-03-20 19:51:00,
2013-03-20 14:56:00,17.4,3.2,30.32,ENE,68,12.0,21.0,53,0.00,,,0.00,meteohub,2013-03-20 19:56:00,
2013-03-20 15:01:00,17.8,4.3,30.31,North,10,10.0,23.0,55,0.00,,,0.00,meteohub,2013-03-20 20:01:00,
2013-03-20 15:06:00,17.8,3.9,30.31,NE,36,12.0,24.0,54,0.00,,,0.00,meteohub,2013-03-20 20:06:00,
2013-03-20 15:11:00,17.8,3.9,30.31,North,10,10.0,24.0,54,0.00,,,0.00,meteohub,2013-03-20 20:11:00,
2013-03-20 15:16:00,18.3,4.5,30.31,NNE,19,13.0,24.0,54,0.00,,,0.00,meteohub,2013-03-20 20:16:00,
2013-03-20 15:21:00,18.5,5.0,30.31,NE,43,13.0,22.0,55,0.00,,,0.00,meteohub,2013-03-20 20:21:00,
2013-03-20 15:26:00,18.9,5.0,30.31,NNE,13,15.0,22.0,54,0.00,,,0.00,meteohub,2013-03-20 20:26:00,
2013-03-20 15:31:00,18.7,4.8,30.31,NE,55,11.0,18.0,54,0.00,,,0.00,meteohub,2013-03-20 20:31:00,
2013-03-20 15:36:00,18.9,5.0,30.30,ENE,69,14.0,22.0,54,0.00,,,0.00,meteohub,2013-03-20 20:36:00,
2013-03-20 15:42:00,18.7,4.8,30.30,NNE,30,15.0,22.0,54,0.00,,,0.00,meteohub,2013-03-20 20:42:00,
2013-03-20 15:47:00,18.9,5.0,30.30,North,0,11.0,22.0,54,0.00,,,0.00,meteohub,2013-03-20 20:47:00,
2013-03-20 15:52:00,18.7,4.5,30.30,NNE,16,7.0,19.0,53,0.00,,,0.00,meteohub,2013-03-20 20:52:00,
2013-03-20 15:57:00,18.3,4.5,30.30,NE,45,6.0,21.0,54,0.00,,,0.00,meteohub,2013-03-20 20:57:00,
2013-03-20 16:02:00,18.7,4.5,30.30,North,11,10.0,21.0,53,0.00,,,0.00,meteohub,2013-03-20 21:02:00,
2013-03-20 16:07:00,18.9,5.0,30.30,NNE,18,12.0,21.0,54,0.00,,,0.00,meteohub,2013-03-20 21:07:00,
2013-03-20 16:12:00,19.4,5.5,30.30,NNE,18,9.0,20.0,54,0.00,,,0.00,meteohub,2013-03-20 21:12:00,
2013-03-20 16:17:00,18.9,4.6,30.30,NE,40,9.0,22.0,53,0.00,,,0.00,meteohub,2013-03-20 21:17:00,
2013-03-20 16:22:00,18.7,4.8,30.30,NE,45,15.0,22.0,54,0.00,,,0.00,meteohub,2013-03-20 21:22:00,
2013-03-20 16:27:00,18.5,4.6,30.30,North,5,14.0,22.0,54,0.00,,,0.00,meteohub,2013-03-20 21:27:00,
2013-03-20 16:32:00,18.7,4.8,30.30,North,10,14.0,20.0,54,0.00,,,0.00,meteohub,2013-03-20 21:32:00,
2013-03-20 16:37:00,18.7,4.8,30.30,North,10,5.0,21.0,54,0.00,,,0.00,meteohub,2013-03-20 21:37:00,
2013-03-20 16:42:00,18.9,5.0,30.30,North,0,15.0,21.0,54,0.00,,,0.00,meteohub,2013-03-20 21:42:00,
2013-03-20 16:47:00,18.7,4.8,30.30,NNE,14,14.0,21.0,54,0.00,,,0.00,meteohub,2013-03-20 21:47:00,
2013-03-20 16:52:00,18.9,5.4,30.30,North,10,11.0,21.0,55,0.00,,,0.00,meteohub,2013-03-20 21:52:00,
2013-03-20 16:57:00,18.9,5.0,30.30,NNW,341,13.0,20.0,54,0.00,,,0.00,meteohub,2013-03-20 21:57:00,
2013-03-20 17:02:00,19.0,5.5,30.30,NNE,19,6.0,20.0,55,0.00,,,0.00,meteohub,2013-03-20 22:02:00,
2013-03-20 17:07:00,19.4,5.9,30.30,NE,34,11.0,17.0,55,0.00,,,0.00,meteohub,2013-03-20 22:07:00,
2013-03-20 17:12:00,19.0,5.2,30.30,NNE,26,14.0,17.0,54,0.00,,,0.00,meteohub,2013-03-20 22:12:00,
2013-03-20 17:17:00,18.9,5.0,30.30,NNE,13,13.0,20.0,54,0.00,,,0.00,meteohub,2013-03-20 22:17:00,
2013-03-20 17:22:00,18.9,5.0,30.30,North,5,11.0,22.0,54,0.00,,,0.00,meteohub,2013-03-20 22:22:00,
2013-03-20 17:27:00,18.9,5.0,30.30,NNW,345,10.0,22.0,54,0.00,,,0.00,meteohub,2013-03-20 22:27:00,
2013-03-20 17:32:00,18.9,5.7,30.30,NNE,19,9.0,22.0,56,0.00,,,0.00,meteohub,2013-03-20 22:32:00,
2013-03-20 17:37:00,18.9,5.7,30.30,NNE,22,6.0,18.0,56,0.00,,,0.00,meteohub,2013-03-20 22:37:00,
2013-03-20 17:42:00,18.7,5.5,30.30,NNE,15,15.0,18.0,56,0.00,,,0.00,meteohub,2013-03-20 22:42:00,
2013-03-20 17:47:00,18.5,5.7,30.30,NNE,18,10.0,18.0,57,0.00,,,0.00,meteohub,2013-03-20 22:47:00,
2013-03-20 17:53:00,18.3,5.2,30.30,NNE,13,12.0,18.0,56,0.00,,,0.00,meteohub,2013-03-20 22:53:00,
2013-03-20 17:58:00,18.3,5.7,30.30,NE,40,12.0,18.0,57,0.00,,,0.00,meteohub,2013-03-20 22:58:00,
2013-03-20 18:03:00,18.3,5.7,30.30,North,9,6.0,17.0,57,0.00,,,0.00,meteohub,2013-03-20 23:03:00,
2013-03-20 18:08:00,18.1,5.5,30.30,NNE,16,8.0,17.0,57,0.00,,,0.00,meteohub,2013-03-20 23:08:00,
2013-03-20 18:13:00,18.1,5.9,30.30,North,0,7.0,15.0,58,0.00,,,0.00,meteohub,2013-03-20 23:13:00,
2013-03-20 18:18:00,18.0,5.7,30.30,NNE,19,13.0,15.0,58,0.00,,,0.00,meteohub,2013-03-20 23:18:00,
2013-03-20 18:23:00,17.8,5.5,30.30,NNE,14,3.0,16.0,58,0.00,,,0.00,meteohub,2013-03-20 23:23:00,
2013-03-20 18:28:00,17.8,5.5,30.30,NNE,29,7.0,16.0,58,0.00,,,0.00,meteohub,2013-03-20 23:28:00,
2013-03-20 18:33:00,17.6,5.7,30.30,NE,46,7.0,15.0,59,0.00,,,0.00,meteohub,2013-03-20 23:33:00,
2013-03-20 18:38:00,17.6,5.7,30.30,NNE,18,3.0,15.0,59,0.00,,,0.00,meteohub,2013-03-20 23:38:00,
2013-03-20 18:43:00,17.6,5.7,30.30,NNE,17,4.0,15.0,59,0.00,,,0.00,meteohub,2013-03-20 23:43:00,
2013-03-20 18:48:00,17.4,5.5,30.30,NNE,21,3.0,12.0,59,0.00,,,0.00,meteohub,2013-03-20 23:48:00,
2013-03-20 18:53:00,17.2,5.4,30.30,NNE,18,4.0,11.0,59,0.00,,,0.00,meteohub,2013-03-20 23:53:00,
2013-03-20 18:58:00,17.1,5.2,30.30,NNE,18,11.0,12.0,59,0.00,,,0.00,meteohub,2013-03-20 23:58:00,
2013-03-20 19:03:00,16.7,5.2,30.30,NNE,21,6.0,14.0,60,0.00,,,0.00,meteohub,2013-03-21 00:03:00,
2013-03-20 19:08:00,16.3,4.8,30.30,North,9,5.0,14.0,60,0.00,,,0.00,meteohub,2013-03-21 00:08:00,
2013-03-20 19:13:00,16.2,5.0,30.30,NE,55,7.0,15.0,61,0.00,,,0.00,meteohub,2013-03-21 00:13:00,
2013-03-20 19:18:00,16.0,4.8,30.30,NNE,29,5.0,15.0,61,0.00,,,0.00,meteohub,2013-03-21 00:18:00,
2013-03-20 19:23:00,15.6,5.0,30.30,NE,39,10.0,13.0,62,0.00,,,0.00,meteohub,2013-03-21 00:23:00,
2013-03-20 19:28:00,15.4,4.8,30.30,NE,36,8.0,13.0,62,0.00,,,0.00,meteohub,2013-03-21 00:28:00,
2013-03-20 19:33:00,15.3,5.0,30.30,NE,41,7.0,13.0,63,0.00,,,0.00,meteohub,2013-03-21 00:33:00,
2013-03-20 19:38:00,15.3,5.0,30.30,NNE,19,5.0,13.0,63,0.00,,,0.00,meteohub,2013-03-21 00:38:00,
2013-03-20 19:43:00,15.1,4.8,30.30,North,10,4.0,16.0,63,0.00,,,0.00,meteohub,2013-03-21 00:43:00,
2013-03-20 19:48:00,14.7,4.8,30.30,NNE,25,4.0,16.0,64,0.00,,,0.00,meteohub,2013-03-21 00:48:00,
2013-03-20 19:53:00,14.5,4.6,30.30,NE,44,5.0,16.0,64,0.00,,,0.00,meteohub,2013-03-21 00:53:00,
2013-03-20 19:58:00,14.5,4.6,30.30,NNE,21,4.0,11.0,64,0.00,,,0.00,meteohub,2013-03-21 00:58:00,
2013-03-20 20:03:00,14.4,4.5,30.30,NNE,17,0.0,11.0,64,0.00,,,0.00,meteohub,2013-03-21 01:03:00,
2013-03-20 20:08:00,14.4,4.5,30.30,NNE,17,3.0,11.0,64,0.00,,,0.00,meteohub,2013-03-21 01:08:00,
2013-03-20 20:13:00,14.2,4.6,30.30,NE,36,6.0,10.0,65,0.00,,,0.00,meteohub,2013-03-21 01:13:00,
2013-03-20 20:18:00,14.0,4.5,30.30,NNE,19,3.0,9.0,65,0.00,,,0.00,meteohub,2013-03-21 01:18:00,
2013-03-20 20:23:00,13.8,4.3,30.30,North,11,3.0,9.0,65,0.00,,,0.00,meteohub,2013-03-21 01:23:00,
2013-03-20 20:28:00,13.6,4.1,30.30,NNE,14,3.0,8.0,65,0.00,,,0.00,meteohub,2013-03-21 01:28:00,
2013-03-20 20:33:00,13.6,4.1,30.30,NNE,24,4.0,7.0,65,0.00,,,0.00,meteohub,2013-03-21 01:33:00,
2013-03-20 20:38:00,13.6,4.1,30.30,NNE,30,6.0,10.0,65,0.00,,,0.00,meteohub,2013-03-21 01:38:00,
2013-03-20 20:43:00,13.5,3.9,30.30,NNE,23,4.0,10.0,65,0.00,,,0.00,meteohub,2013-03-21 01:43:00,
2013-03-20 20:48:00,13.3,3.7,30.30,NNE,23,3.0,10.0,65,0.00,,,0.00,meteohub,2013-03-21 01:48:00,
2013-03-20 20:53:00,13.1,3.9,30.30,NNE,29,5.0,7.0,66,0.00,,,0.00,meteohub,2013-03-21 01:53:00,
2013-03-20 20:58:00,12.9,3.7,30.30,NNE,19,3.0,7.0,66,0.00,,,0.00,meteohub,2013-03-21 01:58:00,
2013-03-20 21:03:00,12.9,3.7,30.30,NNE,31,5.0,7.0,66,0.00,,,0.00,meteohub,2013-03-21 02:03:00,
2013-03-20 21:08:00,12.9,3.7,30.30,NNE,30,7.0,12.0,66,0.00,,,0.00,meteohub,2013-03-21 02:08:00,
2013-03-20 21:13:00,12.7,3.6,30.30,NNE,32,6.0,12.0,66,0.00,,,0.00,meteohub,2013-03-21 02:13:00,
2013-03-20 21:18:00,12.7,3.6,30.30,NNE,22,7.0,12.0,66,0.00,,,0.00,meteohub,2013-03-21 02:18:00,
2013-03-20 21:24:00,12.7,3.6,30.30,NE,36,5.0,11.0,66,0.00,,,0.00,meteohub,2013-03-21 02:24:00,
2013-03-20 21:29:00,12.6,3.4,30.30,NNE,32,4.0,11.0,66,0.00,,,0.00,meteohub,2013-03-21 02:29:00,
2013-03-20 21:34:00,12.6,3.4,30.30,NE,53,7.0,11.0,66,0.00,,,0.00,meteohub,2013-03-21 02:34:00,
2013-03-20 21:39:00,12.6,3.4,30.30,NE,34,10.0,13.0,66,0.00,,,0.00,meteohub,2013-03-21 02:39:00,
2013-03-20 21:44:00,12.6,3.4,30.30,NNE,22,7.0,14.0,66,0.00,,,0.00,meteohub,2013-03-21 02:44:00,
2013-03-20 21:49:00,12.4,3.2,30.30,NNE,33,4.0,14.0,66,0.00,,,0.00,meteohub,2013-03-21 02:49:00,
2013-03-20 21:54:00,12.2,3.4,30.30,NE,37,3.0,14.0,67,0.00,,,0.00,meteohub,2013-03-21 02:54:00,
2013-03-20 21:59:00,12.0,3.2,30.30,NE,46,6.0,11.0,67,0.00,,,0.00,meteohub,2013-03-21 02:59:00,
2013-03-20 22:04:00,12.0,3.2,30.30,NNE,15,7.0,13.0,67,0.00,,,0.00,meteohub,2013-03-21 03:04:00,
2013-03-20 22:09:00,12.0,3.2,30.29,NE,40,5.0,13.0,67,0.00,,,0.00,meteohub,2013-03-21 03:09:00,
2013-03-20 22:14:00,12.0,3.2,30.30,NNE,22,6.0,13.0,67,0.00,,,0.00,meteohub,2013-03-21 03:14:00,
2013-03-20 22:19:00,12.2,3.4,30.30,NNE,30,3.0,13.0,67,0.00,,,0.00,meteohub,2013-03-21 03:19:00,
2013-03-20 22:24:00,12.0,3.2,30.30,NE,51,8.0,13.0,67,0.00,,,0.00,meteohub,2013-03-21 03:24:00,
2013-03-20 22:29:00,11.8,3.0,30.30,NNE,32,5.0,13.0,67,0.00,,,0.00,meteohub,2013-03-21 03:29:00,
2013-03-20 22:34:00,11.7,2.8,30.30,NNE,22,3.0,13.0,67,0.00,,,0.00,meteohub,2013-03-21 03:34:00,
2013-03-20 22:39:00,11.7,3.2,30.30,NNE,14,4.0,10.0,68,0.00,,,0.00,meteohub,2013-03-21 03:39:00,
2013-03-20 22:44:00,11.5,2.7,30.30,NNE,32,5.0,10.0,67,0.00,,,0.00,meteohub,2013-03-21 03:44:00,
2013-03-20 22:49:00,11.5,3.0,30.30,NNE,21,5.0,10.0,68,0.00,,,0.00,meteohub,2013-03-21 03:49:00,
2013-03-20 22:55:00,11.5,3.0,30.30,NNE,32,5.0,11.0,68,0.00,,,0.00,meteohub,2013-03-21 03:55:00,
2013-03-20 23:00:00,11.1,2.7,30.30,NNE,22,3.0,11.0,68,0.00,,,0.00,meteohub,2013-03-21 04:00:00,
2013-03-20 23:01:00,11.1,2.7,30.30,NNE,32,3.0,11.0,68,0.00,,,0.00,meteohub,2013-03-21 04:01:00,
2013-03-20 23:06:00,10.9,2.5,30.30,NNE,26,3.0,10.0,68,0.00,,,0.00,meteohub,2013-03-21 04:06:00,
2013-03-20 23:11:00,10.9,2.5,30.30,NNE,22,3.0,10.0,68,0.00,,,0.00,meteohub,2013-03-21 04:11:00,
2013-03-20 23:16:00,10.8,2.3,30.30,NNE,21,2.0,7.0,68,0.00,,,0.00,meteohub,2013-03-21 04:16:00,
2013-03-20 23:22:00,10.6,2.1,30.30,NNE,22,0.0,6.0,68,0.00,,,0.00,meteohub,2013-03-21 04:22:00,
2013-03-20 23:27:00,10.4,1.9,30.30,NNE,23,0.0,6.0,68,0.00,,,0.00,meteohub,2013-03-21 04:27:00,
2013-03-20 23:32:00,10.2,2.1,30.30,NNE,23,0.0,6.0,69,0.00,,,0.00,meteohub,2013-03-21 04:32:00,
2013-03-20 23:37:00,9.9,1.4,30.30,NNE,22,0.0,4.0,68,0.00,,,0.00,meteohub,2013-03-21 04:37:00,
2013-03-20 23:42:00,9.5,1.4,30.30,NNE,23,0.0,3.0,69,0.00,,,0.00,meteohub,2013-03-21 04:42:00,
2013-03-20 23:47:00,9.1,1.0,30.30,NNE,22,0.0,2.0,69,0.00,,,0.00,meteohub,2013-03-21 04:47:00,
2013-03-20 23:52:00,9.0,0.9,30.30,NNE,22,0.0,2.0,69,0.00,,,0.00,meteohub,2013-03-21 04:52:00,
2013-03-20 23:57:00,8.4,0.7,30.30,NNE,23,0.0,2.0,70,0.00,,,0.00,meteohub,2013-03-21 04:57:00,